Погода в Медведице

Россия / Волгоградская область     51°04′52″N   44°49′11″E
темп.,
°C
ветер,
м/с
пор.,
м/с
влажн.,
%
обл.,
%
осадки,
мм/ч
давл.,
гПа
погр.,
м
19 мая, ср
ср1900:00+18в334999 0.0 100837
03:00+15ю34635 0.0 100948
06:00+16юз35885 0.0 1010192
09:00+20з22660 0.0 1010544
12:00+25юв474891 0.0 10101367
15:00+27ююв683833 0.0 10091783
18:00+24ююз3757100 0.0 1008220
21:00+16зюз51182100 0.6 1010383
20 мая, чт
чт2000:00+14юз3788100 0.6 1012320
03:00+13ююз2390100 0.6 1012121
06:00+13ю4689100 0.0 1012355
09:00+17ююз5669100 0.0 10121039
12:00+19ююз6659100 0.2 10121398
15:00+19ююз786047 1.1 10111485
18:00+17ююз7106745 0.3 10111193
21:00+13ююз38855 0.4 1012184
21 мая, пт
пт2100:00+11ююз36912 0.0 1013118
03:00+11ююз349499 0.0 101480
06:00+13ююз488713 0.0 1015281
09:00+19юз6106225 0.0 10161079
12:00+22зюз685241 0.0 10161663
15:00+23зюз464854 0.0 10161800
18:00+22ююз2462100 0.0 101792
21:00+19ююв2262100 0.0 101722
22 мая, сб
сб2200:00+19св2262100 0.0 101712
03:00+17всв476652 0.0 1017125
06:00+17в5107270 0.0 1017303
09:00+23юв6104974 0.0 1016640
12:00+27юв9123924 0.0 10151583
15:00+29ююв71238100 0.0 10132083
18:00+26юв375147 0.0 1012147
21:00+21вюв4105091 0.0 1013132
23 мая, вс
вс2300:00+20юв3451100 0.0 101250
03:00+19юв3350100 0.0 101237
06:00+20вюв395688 0.0 1012164
09:00+27юв6134294 0.0 1011570
12:00+31юв71031100 0.0 1010992
15:00+31юв7123791 0.0 10081233
18:00+28ююв81733100 0.0 1007548
21:00+27ююв10212568 0.0 1007729